[[{"header":{"parameterUnit":"m.s-1","parameterCategory":2,"la1":30.2991,"la2":30.254,"lo1":-89.0895,"lo2":-89.0444,"dy":0.0017,"dx":0.0017,"nx":28,"ny":28,"refTime":"2023-06-18T21:00:00:Z","depth":"0","parameterNumber":2,"parameterNumberName":"U-component_of_CURRENTS"},"data":[0,0,0,0,0,0,0,0,0,0,0,0,0,0,0,0,0,0,0,0,0,0,0,0,0,0,0,0,0,0,0,0,0,0,0,0,0,0,0,0,0,0,0,0,0,0,0,0,0,0,0,0,0,0,0,0,0,0,0.5114,0.5116,0,0.5283,0.5284,0.5286,0.521,0.5206,0.5202,0.5199,0.5446,0.5456,0.5466,0,0,0,0,0,0,0,0,0,0,0,0,0,0.4776,0.4782,0.5114,0.5116,0.5119,0.5282,0.5284,0.5286,0.5211,0.5206,0.5201,0.5197,0.5443,0.5455,0.5467,0,0,0,0,0,0,0,0,0,0,0,0,0,0.4928,0.4784,0.5113,0.5103,0.5104,0.5282,0.5284,0.5287,0.5212,0.5206,0.52,0.5195,0.5439,0.5454,0.5469,0.5679,0,0,0.5516,0.5522,0,0,0,0,0,0,0,0,0.4919,0.494,0.5102,0.5104,0.5106,0.5222,0.5256,0.5423,0.5213,0.5167,0.5198,0.5192,0.5386,0.5405,0.5443,0.569,0.5701,0.5517,0.5526,0.5533,0.5537,0,0,0,0,0,0,0,0.4909,0.4933,0.5177,0.5106,0.5108,0.5108,0.5122,0.5287,0.5305,0.5171,0.5166,0.5193,0.5386,0.5428,0.5449,0.5705,0.5516,0.553,0.5539,0.5545,0.6104,0.611,0,0,0,0,0,0,0.4901,0.4924,0.5171,0.5182,0.5001,0.5119,0.5135,0.5188,0.5302,0.5314,0.5198,0.5189,0.5405,0.5431,0.5457,0.5757,0.5533,0.5547,0.5556,0.6099,0.6105,0.6112,0,0,0,0,0,0,0.4894,0.4923,0.5165,0.5057,0.5088,0.5131,0.5191,0.5194,0.5221,0.5322,0.5333,0.5218,0.5402,0.5436,0.5645,0.5763,0.5554,0.5568,0.6092,0.6101,0.6109,0.6329,0,0,0,0,0,0,0.4884,0.492,0.4991,0.5058,0.5094,0.5334,0.5197,0.5202,0.5249,0.5239,0.5347,0.5363,0.54,0.5622,0.566,0.578,0.558,0.6085,0.6096,0.6106,0.6314,0.6344,0.6369,0,0,0,0,0,0.4872,0.504,0.4995,0.5026,0.518,0.5341,0.5364,0.5367,0.5256,0.5349,0.5395,0.5359,0.5712,0.5643,0.5685,0.5812,0.6079,0.6093,0.6105,0.6302,0.6338,0.6368,0,0,0,0,0,0,0.4946,0.505,0.5001,0.519,0.5265,0.533,0.5445,0.5383,0.5487,0.5459,0.5481,0.5512,0.5734,0.575,0.567,0.5996,0.5874,0.5896,0.6009,0.6043,0.607,0.6021,0.5592,0,0,0,0,0,0.4989,0.5126,0.5189,0.5336,0.5389,0.5392,0.5456,0.5434,0.5514,0.5545,0.5612,0.5689,0.5832,0.591,0.6046,0.626,0.6208,0.635,0.6377,0.64,0.6388,0.6422,0.6449,0.6154,0.6153,0.6153,0,0,0.5046,0.5129,0.5198,0.5358,0.5412,0.5542,0.542,0.554,0.5628,0.5573,0.5759,0.5821,0.5913,0.6144,0.6239,0.6166,0.6468,0.6417,0.6436,0.641,0.6438,0.6466,0.6491,0.6162,0.6161,0.6159,0,0,0.5249,0.5313,0.5482,0.5562,0.5664,0.5687,0.5713,0.5784,0.5814,0.6,0.5963,0.6082,0.6313,0.6385,0.6449,0.6712,0.6622,0.6747,0.6851,0.6888,0.6911,0.693,0.6928,0.6945,0.6747,0.6747,0.6748,0,0.5303,0.5498,0.556,0.5724,0.5788,0.5747,0.5882,0.5966,0.6081,0.6115,0.6095,0.6335,0.6428,0.6629,0.672,0.6776,0.675,0.6723,0.6919,0.6937,0.6953,0.6946,0.6962,0.6759,0.6758,0.6757,0.6756,0,0.5612,0.5735,0.5859,0.602,0.6119,0.6247,0.6313,0.6401,0.6393,0.6417,0.6599,0.671,0.6803,0.6884,0.6907,0.7072,0.7005,0.6958,0.6823,0.6995,0.6978,0.6991,0.6777,0.6772,0.6769,0.6766,0,0,0.5795,0.6015,0.6048,0.6086,0.6252,0.6335,0.6526,0.6647,0.6674,0.6821,0.6887,0.7146,0.7077,0.7142,0.7158,0.7212,0.7347,0.7143,0.7139,0.7118,0.7397,0.7196,0.7188,0.7325,0.7328,0.733,0.7347,0,0.5985,0.6247,0.6338,0.6528,0.6635,0.665,0.6792,0.6875,0.6939,0.7022,0.7095,0.7201,0.7215,0.7231,0.7309,0.7337,0.7386,0.7344,0.725,0.7247,0.7028,0.7199,0.6801,0.6767,0.7358,0.736,0.7361,0,0.6255,0.6368,0.6566,0.6648,0.6697,0.6793,0.6882,0.7006,0.7118,0.7162,0.7251,0.7268,0.7416,0.7361,0.7492,0.7457,0.7448,0.7452,0.7451,0.718,0.7068,0.6689,0.6766,0.6636,0.7379,0.7378,0.7377,0,0.6292,0.6519,0.663,0.6682,0.6809,0.6856,0.6913,0.7018,0.707,0.7213,0.7232,0.7381,0.7419,0.7485,0.7534,0.7508,0.7617,0.7565,0.7373,0.7356,0.6952,0.6894,0.6859,0.7625,0.7625,0.7625,0.7625,0,0.6453,0.6528,0.6623,0.6678,0.6729,0.6834,0.688,0.6969,0.706,0.7086,0.7255,0.7288,0.7447,0.7519,0.7558,0.7513,0.7638,0.7407,0.7359,0.7022,0.6973,0.6782,0.675,0.7625,0.7625,0.7625,0.7625,0,0.644,0.655,0.6621,0.6717,0.6739,0.6748,0.6803,0.6824,0.6956,0.6998,0.704,0.7232,0.7316,0.7443,0.7538,0.7491,0.7278,0.7442,0.7025,0.6927,0.6554,0.6548,0.6241,0.6078,0.72,0.7196,0.7192,0,0.645,0.6492,0.6558,0.6548,0.657,0.6598,0.6597,0.6741,0.6755,0.6925,0.6922,0.7063,0.707,0.7176,0.7145,0.7146,0.7062,0.6779,0.6657,0.6494,0.6456,0.6312,0.619,0.6227,0.6216,0.6206,0.6199,0,0.6369,0.6368,0.6388,0.6372,0.6372,0.6367,0.6387,0.639,0.6535,0.6586,0.6623,0.6653,0.6716,0.6527,0.657,0.6545,0.6428,0.6577,0.6517,0.5781,0.551,0.5339,0.627,0.6115,0.6123,0.6129,0.6134,0.6137,0.6213,0.6165,0.6167,0.6115,0.6122,0.6076,0.5961,0.6011,0.6,0.5917,0.6179,0.6036,0.6017,0.5977,0.5954,0.5672,0.5791,0.5471,0.5508,0.5405,0.5133,0.5871,0.5599,0.5604,0.5609,0.5613,0.5616,0,0.5956,0.593,0.5899,0.581,0.5681,0.5792,0.5741,0.5558,0.5401,0.544,0.5372,0.5211,0.5018,0.5034,0.486,0.4668,0.4513,0.457,0.4298,0.426,0.4984,0.4828,0.4241,0.4242,0.4242,0.4242,0.4242,0.4242,0.5817,0.5681,0.5655,0.5367,0.5291,0.5029,0.4926,0.4755,0.4689,0.4386,0.4203,0.4239,0.4433,0.4376,0.4156,0.4052,0.3846,0.3558,0.375,0.4293,0.4382,0.4466,0.4316,0.3631,0.363,0.2769,0.2762,0.2757]},{"header":{"parameterUnit":"m.s-1","parameterCategory":2,"la1":30.2991,"la2":30.254,"lo1":-89.0895,"lo2":-89.0444,"dy":0.0017,"dx":0.0017,"nx":28,"ny":28,"refTime":"2023-06-18T21:00:00:Z","depth":"0","parameterNumber":3,"parameterNumberName":"V-component_of_CURRENTS"},"data":[0,0,0,0,0,0,0,0,0,0,0,0,0,0,0,0,0,0,0,0,0,0,0,0,0,0,0,0,0,0,0,0,0,0,0,0,0,0,0,0,0,0,0,0,0,0,0,0,0,0,0,0,0,0,0,0,0,0,-0.0225,-0.0225,0,-0.0198,-0.0198,-0.0197,-0.0223,-0.0224,-0.0226,-0.0227,-0.0296,-0.0296,-0.0297,0,0,0,0,0,0,0,0,0,0,0,0,0,-0.0171,-0.0172,-0.0225,-0.0225,-0.0225,-0.0198,-0.0198,-0.0197,-0.0223,-0.0224,-0.0226,-0.0228,-0.0296,-0.0296,-0.0297,0,0,0,0,0,0,0,0,0,0,0,0,0,-0.017,-0.0172,-0.0225,-0.0238,-0.024,-0.0199,-0.0198,-0.0197,-0.0222,-0.0225,-0.0227,-0.0229,-0.0295,-0.0296,-0.0297,-0.0257,0,0,-0.0299,-0.0299,0,0,0,0,0,0,0,0,-0.017,-0.0171,-0.0236,-0.0237,-0.0239,-0.022,-0.0204,-0.0223,-0.0222,-0.0224,-0.0227,-0.023,-0.0281,-0.0283,-0.0265,-0.026,-0.0263,-0.0299,-0.0299,-0.03,-0.03,0,0,0,0,0,0,0,-0.017,-0.0172,-0.0209,-0.0236,-0.0238,-0.0203,-0.0206,-0.0206,-0.0238,-0.0224,-0.0227,-0.0231,-0.0282,-0.0264,-0.0267,-0.0264,-0.0299,-0.03,-0.03,-0.03,-0.0135,-0.0131,0,0,0,0,0,0,-0.0188,-0.0173,-0.021,-0.0209,-0.0215,-0.0203,-0.0206,-0.022,-0.0236,-0.0241,-0.0229,-0.0232,-0.0262,-0.0266,-0.027,-0.0174,-0.03,-0.03,-0.0301,-0.014,-0.0134,-0.0129,0,0,0,0,0,0,-0.0187,-0.0192,-0.0211,-0.0193,-0.0194,-0.0203,-0.0218,-0.0219,-0.0202,-0.024,-0.0247,-0.0214,-0.0264,-0.0269,-0.0233,-0.018,-0.0301,-0.0301,-0.0146,-0.0138,-0.0132,-0.0015,0,0,0,0,0,0,-0.0185,-0.0192,-0.0195,-0.0195,-0.0196,-0.0173,-0.0216,-0.0217,-0.0204,-0.0208,-0.0229,-0.0237,-0.0266,-0.0231,-0.0233,-0.0183,-0.0302,-0.0152,-0.0142,-0.0134,-0.0025,-0.0005,0.0012,0,0,0,0,0,-0.0184,-0.0187,-0.0195,-0.0199,-0.0205,-0.0171,-0.0166,-0.0176,-0.0201,-0.0173,-0.0174,-0.0237,-0.0176,-0.0228,-0.0232,-0.018,-0.0156,-0.0145,-0.0135,-0.0034,-0.0009,0.0012,0,0,0,0,0,0,-0.0168,-0.019,-0.02,-0.0211,-0.0185,-0.0177,-0.0162,-0.0165,-0.014,-0.0151,-0.0187,-0.0192,-0.0135,-0.0158,-0.0215,-0.0096,-0.0171,-0.0161,-0.0093,-0.007,-0.0052,-0.0054,-0.0302,0,0,0,0,0,-0.0165,-0.0176,-0.0172,-0.0177,-0.0166,-0.0157,-0.0145,-0.0146,-0.0133,-0.0125,-0.013,-0.0121,-0.0088,-0.0084,-0.0064,-0.0011,-0.0047,0.0029,0.0048,0.0063,0.0067,0.009,0.0109,-0.0094,-0.0094,-0.0094,0,0,-0.0168,-0.0176,-0.0187,-0.0173,-0.016,-0.0109,-0.0154,-0.0128,-0.0078,-0.0137,-0.0069,-0.0062,-0.0055,0.0017,0.0039,-0.0005,0.0106,0.0077,0.009,0.0084,0.0103,0.0122,0.0139,-0.0087,-0.0088,-0.0089,0,0,-0.0149,-0.0174,-0.0159,-0.0123,-0.0095,-0.008,-0.0068,-0.0039,-0.0022,0.0043,0.0033,0.0083,0.011,0.0148,0.0163,0.0302,0.0208,0.0307,0.0385,0.0409,0.0424,0.0437,0.0409,0.0418,0.031,0.031,0.031,0,-0.015,-0.0118,-0.0141,-0.0087,-0.0045,-0.006,0.0009,0.0035,0.0079,0.0113,0.0075,0.0184,0.0181,0.0289,0.034,0.034,0.0311,0.0287,0.0428,0.044,0.0451,0.0419,0.0428,0.0317,0.0316,0.0315,0.0315,0,-0.0098,-0.0051,-0.0031,0.0029,0.0072,0.0127,0.0162,0.0207,0.0216,0.0245,0.034,0.0358,0.0418,0.0441,0.0423,0.0529,0.0468,0.0446,0.0353,0.0477,0.0437,0.0444,0.0327,0.0324,0.0322,0.0321,0,0,-0.015,-0.0021,-0.0009,0.0072,0.0146,0.0193,0.0274,0.036,0.0422,0.0455,0.0551,0.0618,0.0608,0.063,0.063,0.0648,0.0701,0.0578,0.0576,0.0519,0.0708,0.0628,0.0626,0.0687,0.069,0.0692,0.0642,0,-0.0089,0.0059,0.0093,0.0244,0.0339,0.0368,0.0456,0.0522,0.056,0.0647,0.0667,0.0751,0.0686,0.0725,0.0739,0.0735,0.0727,0.0714,0.0623,0.062,0.0509,0.0636,0.0609,0.056,0.0648,0.0649,0.065,0,-0.0032,0.007,0.0239,0.0405,0.044,0.0512,0.0646,0.072,0.0812,0.0841,0.0899,0.0903,0.0978,0.0889,0.0894,0.0881,0.0799,0.0759,0.0755,0.0642,0.0555,0.0457,0.0568,0.0355,0.0659,0.0658,0.0658,0,0.0011,0.0175,0.0324,0.0384,0.0551,0.0615,0.0682,0.0781,0.0879,0.0965,0.1043,0.1078,0.1136,0.106,0.0977,0.0935,0.0946,0.0879,0.0715,0.0706,0.0647,0.0629,0.0517,0.0849,0.0849,0.0849,0.0849,0,0.0104,0.0229,0.0354,0.0452,0.0606,0.0677,0.0831,0.0892,0.102,0.1178,0.1146,0.1276,0.1181,0.1176,0.1041,0.0919,0.0993,0.0748,0.0709,0.0688,0.0675,0.0455,0.0346,0.0847,0.0847,0.0848,0.0848,0,0.0193,0.0278,0.045,0.0603,0.0653,0.0758,0.0933,0.1051,0.1136,0.1343,0.1388,0.1455,0.1446,0.1312,0.1212,0.1023,0.0767,0.0816,0.0771,0.0727,0.0337,0.0237,0.0058,-0.0024,0.0618,0.0616,0.0614,0,0.029,0.0385,0.0543,0.064,0.0721,0.0872,0.0995,0.1106,0.1249,0.1478,0.1605,0.1644,0.1725,0.1511,0.1202,0.0932,0.0733,0.0661,0.0577,0.033,0.019,0.0096,0.0035,0.0538,0.0536,0.0534,0.0533,0,0.045,0.0472,0.0594,0.0782,0.0913,0.1078,0.1254,0.1384,0.156,0.1742,0.1979,0.2056,0.1842,0.1574,0.1151,0.0945,0.0492,0.0611,0.04,0.016,0.0011,-0.009,0.0513,0.0517,0.0519,0.052,0.0521,0.0521,0.0544,0.0631,0.076,0.0937,0.1097,0.1297,0.1436,0.1641,0.1895,0.2175,0.2233,0.2368,0.1907,0.1347,0.1024,0.0347,0.0371,0.0111,0.0019,-0.0048,-0.015,0.0386,0.0319,0.032,0.032,0.032,0.0321,0,0.0671,0.0758,0.0925,0.1131,0.1318,0.1375,0.1637,0.1789,0.209,0.2326,0.2518,0.2372,0.1803,0.1209,0.0301,-0.0171,-0.0308,-0.0411,-0.0537,-0.056,-0.0041,-0.007,-0.0276,-0.0276,-0.0276,-0.0275,-0.0275,-0.0275,0.0751,0.0901,0.0973,0.1286,0.1438,0.1672,0.1812,0.2043,0.2244,0.2496,0.2571,0.2611,0.2167,0.0592,-0.0476,-0.0703,-0.0965,-0.1066,-0.1174,-0.0828,-0.0786,-0.0746,-0.0798,-0.1153,-0.1155,-0.1651,-0.1657,-0.1661]}],[{"header":{"parameterUnit":"m.s-1","parameterCategory":2,"la1":30.2991,"la2":30.254,"lo1":-89.0895,"lo2":-89.0444,"dy":0.0017,"dx":0.0017,"nx":28,"ny":28,"refTime":"2023-06-18T21:00:00:Z","depth":"2","parameterNumber":2,"parameterNumberName":"U-component_of_CURRENTS"},"data":[0,0,0,0,0,0,0,0,0,0,0,0,0,0,0,0,0,0,0,0,0,0,0,0,0,0,0,0,0,0,0,0,0,0,0,0,0,0,0,0,0,0,0,0,0,0,0,0,0,0,0,0,0,0,0,0,0,0,0.3854,0.3851,0,0.3756,0.3756,0.3757,0.3758,0.3757,0.3757,0.3756,0.4274,0.4288,0.4302,0,0,0,0,0,0,0,0,0,0,0,0,0,0.3688,0.3695,0.3854,0.3851,0.3848,0.3756,0.3756,0.3757,0.3758,0.3757,0.3757,0.3756,0.427,0.4286,0.4304,0,0,0,0,0,0,0,0,0,0,0,0,0,0.3712,0.3698,0.3854,0.3822,0.3817,0.3756,0.3756,0.3757,0.3758,0.3757,0.3757,0.3756,0.4264,0.4285,0.4306,0.4454,0,0,0.4371,0.4381,0,0,0,0,0,0,0,0,0.3712,0.3721,0.383,0.3824,0.3818,0.3751,0.3885,0.4014,0.3758,0.3802,0.3756,0.3755,0.4144,0.4175,0.4178,0.4479,0.4501,0.4373,0.4386,0.4396,0.4402,0,0,0,0,0,0,0,0.371,0.3723,0.3836,0.3826,0.3819,0.3689,0.3698,0.3907,0.4006,0.3798,0.3793,0.375,0.4148,0.4157,0.4192,0.4509,0.4373,0.4392,0.4405,0.4413,0.4952,0.4954,0,0,0,0,0,0,0.3703,0.3725,0.3838,0.383,0.3739,0.3693,0.3703,0.379,0.399,0.4008,0.3751,0.375,0.4121,0.4167,0.4211,0.4574,0.4395,0.4415,0.4428,0.4951,0.4953,0.4954,0,0,0,0,0,0,0.3703,0.372,0.3842,0.3749,0.3754,0.3698,0.3794,0.3787,0.3799,0.3943,0.3978,0.3765,0.4122,0.4181,0.437,0.4589,0.4425,0.4445,0.4949,0.4952,0.4954,0.5193,0,0,0,0,0,0,0.3701,0.3724,0.372,0.3755,0.3758,0.3823,0.3792,0.3785,0.3763,0.3763,0.397,0.4013,0.4126,0.4336,0.4391,0.4615,0.4461,0.4947,0.495,0.4953,0.5183,0.5203,0.522,0,0,0,0,0,0.3698,0.3738,0.3725,0.373,0.3783,0.3822,0.3816,0.3779,0.3765,0.3787,0.3892,0.4007,0.4393,0.4355,0.4419,0.4655,0.4946,0.4949,0.4953,0.5175,0.5199,0.522,0,0,0,0,0,0,0.3679,0.374,0.3727,0.3788,0.3794,0.3815,0.3843,0.3787,0.3876,0.3918,0.4038,0.4092,0.4343,0.4409,0.4362,0.4789,0.4689,0.4705,0.4835,0.486,0.4878,0.48,0.4479,0,0,0,0,0,0.3666,0.3763,0.3748,0.3828,0.3853,0.3846,0.3832,0.3817,0.3896,0.3929,0.4069,0.4224,0.4405,0.4547,0.4696,0.4956,0.4915,0.5127,0.5146,0.5162,0.5125,0.5202,0.5227,0.4965,0.4965,0.4965,0,0,0.3682,0.3738,0.378,0.3829,0.3889,0.3889,0.3853,0.3908,0.3964,0.3996,0.42,0.4307,0.4464,0.4733,0.4858,0.4836,0.5211,0.5166,0.5182,0.5133,0.5209,0.5235,0.5258,0.4967,0.4967,0.4967,0,0,0.3784,0.3857,0.3929,0.3935,0.3965,0.3961,0.397,0.4015,0.4121,0.4291,0.4316,0.4471,0.4808,0.4907,0.5018,0.5208,0.5278,0.5322,0.5435,0.5516,0.5539,0.5559,0.5538,0.5554,0.5371,0.5372,0.5372,0,0.3738,0.3896,0.3944,0.3985,0.3981,0.3998,0.4012,0.413,0.4217,0.4348,0.4406,0.4749,0.4888,0.5136,0.5207,0.5272,0.5284,0.5375,0.5547,0.5565,0.5581,0.5555,0.557,0.5384,0.5382,0.5381,0.538,0,0.3869,0.3947,0.4044,0.4107,0.4075,0.417,0.423,0.4358,0.45,0.4579,0.4896,0.5045,0.5214,0.5343,0.5381,0.5585,0.5543,0.5544,0.5508,0.5624,0.5586,0.5598,0.5401,0.5396,0.5393,0.539,0,0,0.3902,0.4079,0.4108,0.4148,0.4161,0.418,0.4358,0.451,0.4647,0.4892,0.5106,0.5413,0.5445,0.5546,0.5616,0.5724,0.5868,0.5717,0.5716,0.5721,0.6006,0.5757,0.5744,0.5954,0.5957,0.596,0.5935,0,0.3995,0.4133,0.4146,0.423,0.43,0.4338,0.4456,0.4576,0.4803,0.5036,0.5308,0.5542,0.5555,0.5683,0.578,0.5877,0.5909,0.5869,0.5863,0.5859,0.565,0.5752,0.5342,0.5267,0.5945,0.5946,0.5948,0,0.4092,0.4183,0.4299,0.4363,0.4386,0.4397,0.4577,0.4673,0.4978,0.5178,0.542,0.56,0.5845,0.5821,0.6005,0.6008,0.5973,0.6012,0.6013,0.5689,0.5631,0.5256,0.526,0.5965,0.5963,0.5962,0.5961,0,0.4186,0.4277,0.4409,0.4427,0.4472,0.4573,0.4592,0.4766,0.4921,0.5272,0.5441,0.5709,0.5855,0.599,0.6074,0.6095,0.62,0.623,0.592,0.59,0.5483,0.5419,0.622,0.622,0.622,0.6221,0.6221,0,0.431,0.4407,0.4496,0.4594,0.4648,0.4627,0.4776,0.4865,0.5061,0.5177,0.5493,0.5628,0.5909,0.6034,0.6107,0.6041,0.6211,0.591,0.589,0.5547,0.5493,0.6035,0.6013,0.6219,0.622,0.622,0.622,0,0.4405,0.4517,0.4629,0.4724,0.4735,0.4759,0.4822,0.4916,0.5105,0.5274,0.5414,0.5626,0.5771,0.5959,0.6082,0.5987,0.6039,0.5901,0.5428,0.5351,0.567,0.5661,0.5641,0.5632,0.5625,0.5619,0.5614,0,0.4513,0.4602,0.4696,0.4723,0.4791,0.4849,0.4855,0.4951,0.5008,0.5224,0.5267,0.5483,0.5514,0.5617,0.5581,0.5616,0.5776,0.5128,0.5061,0.5634,0.5618,0.5621,0.5622,0.4608,0.4595,0.4585,0.4576,0,0.4626,0.4669,0.468,0.473,0.4762,0.4778,0.4816,0.4822,0.4885,0.5018,0.5032,0.5111,0.5142,0.4945,0.4925,0.4905,0.5155,0.4902,0.5671,0.4807,0.4655,0.4642,0.4678,0.4482,0.4491,0.4498,0.4503,0.4507,0.4627,0.4562,0.4595,0.4551,0.4586,0.4576,0.4495,0.4508,0.4464,0.4409,0.4596,0.4512,0.4524,0.4301,0.42,0.415,0.4496,0.4326,0.4363,0.4409,0.4283,0.4126,0.3824,0.3829,0.3834,0.3838,0.3842,0,0.4497,0.4429,0.4425,0.4307,0.4234,0.4393,0.4314,0.413,0.3889,0.3961,0.3923,0.3599,0.3444,0.3556,0.3308,0.3273,0.3299,0.3169,0.3192,0.3287,0.3371,0.3196,0.2446,0.2442,0.2438,0.2434,0,0,0.4383,0.4243,0.4132,0.3905,0.3902,0.3726,0.3614,0.3386,0.3319,0.3072,0.3023,0.3222,0.3389,0.286,0.2798,0.2579,0.2917,0.248,0.36,0.372,0.3799,0.4036,0.387,0,0,0,0,0]},{"header":{"parameterUnit":"m.s-1","parameterCategory":2,"la1":30.2991,"la2":30.254,"lo1":-89.0895,"lo2":-89.0444,"dy":0.0017,"dx":0.0017,"nx":28,"ny":28,"refTime":"2023-06-18T21:00:00:Z","depth":"2","parameterNumber":3,"parameterNumberName":"V-component_of_CURRENTS"},"data":[0,0,0,0,0,0,0,0,0,0,0,0,0,0,0,0,0,0,0,0,0,0,0,0,0,0,0,0,0,0,0,0,0,0,0,0,0,0,0,0,0,0,0,0,0,0,0,0,0,0,0,0,0,0,0,0,0,0,-0.0257,-0.0256,0,-0.0172,-0.0171,-0.017,-0.0194,-0.0196,-0.0198,-0.02,-0.0434,-0.0438,-0.0443,0,0,0,0,0,0,0,0,0,0,0,0,0,-0.0231,-0.0232,-0.0257,-0.0256,-0.0255,-0.0172,-0.0171,-0.0169,-0.0194,-0.0196,-0.0199,-0.0201,-0.0433,-0.0438,-0.0443,0,0,0,0,0,0,0,0,0,0,0,0,0,-0.0201,-0.0233,-0.0257,-0.026,-0.0259,-0.0172,-0.0171,-0.0169,-0.0193,-0.0196,-0.0199,-0.0202,-0.0431,-0.0437,-0.0444,-0.0423,0,0,-0.0464,-0.0467,0,0,0,0,0,0,0,0,-0.0203,-0.0202,-0.026,-0.0259,-0.0259,-0.0199,-0.0247,-0.0271,-0.0192,-0.0215,-0.02,-0.0204,-0.0385,-0.0395,-0.0364,-0.0434,-0.0445,-0.0464,-0.0468,-0.0471,-0.0473,0,0,0,0,0,0,0,-0.0205,-0.0204,-0.022,-0.0259,-0.0258,-0.0193,-0.0194,-0.0249,-0.0288,-0.0213,-0.0216,-0.021,-0.0387,-0.0357,-0.0371,-0.0448,-0.0464,-0.047,-0.0474,-0.0477,-0.0475,-0.0471,0,0,0,0,0,0,-0.023,-0.0208,-0.0223,-0.0218,-0.0241,-0.0193,-0.0193,-0.0213,-0.028,-0.0292,-0.0208,-0.0212,-0.0344,-0.0363,-0.038,-0.0413,-0.0471,-0.0477,-0.0481,-0.0479,-0.0474,-0.047,0,0,0,0,0,0,-0.023,-0.0233,-0.0226,-0.0211,-0.0207,-0.0192,-0.0212,-0.021,-0.0193,-0.0273,-0.0291,-0.0197,-0.0348,-0.0371,-0.0413,-0.0422,-0.048,-0.0486,-0.0484,-0.0478,-0.0472,-0.0448,0,0,0,0,0,0,-0.023,-0.0234,-0.0235,-0.0214,-0.0209,-0.0167,-0.0209,-0.0206,-0.0186,-0.0191,-0.027,-0.0292,-0.0352,-0.0402,-0.0419,-0.0432,-0.0491,-0.0489,-0.0481,-0.0474,-0.0454,-0.0442,-0.0432,0,0,0,0,0,-0.0229,-0.0246,-0.0237,-0.0237,-0.022,-0.0165,-0.0154,-0.0151,-0.0183,-0.0152,-0.0206,-0.0291,-0.0367,-0.0405,-0.0426,-0.0441,-0.0492,-0.0483,-0.0475,-0.0459,-0.0444,-0.0432,0,0,0,0,0,0,-0.0233,-0.0249,-0.0239,-0.0258,-0.0203,-0.0171,-0.0161,-0.0145,-0.0151,-0.0181,-0.0261,-0.0285,-0.0323,-0.0353,-0.0393,-0.04,-0.0435,-0.043,-0.0416,-0.0403,-0.0392,-0.0369,-0.0497,0,0,0,0,0,-0.0231,-0.026,-0.0222,-0.023,-0.0216,-0.0179,-0.0156,-0.0141,-0.0149,-0.0153,-0.0206,-0.0253,-0.029,-0.0328,-0.0359,-0.0378,-0.038,-0.0383,-0.0372,-0.0364,-0.0347,-0.0291,-0.0275,-0.0441,-0.0441,-0.0441,0,0,-0.0236,-0.0247,-0.0261,-0.0231,-0.0209,-0.0139,-0.0174,-0.0142,-0.0117,-0.0186,-0.0199,-0.0231,-0.028,-0.0297,-0.0315,-0.0339,-0.0323,-0.0352,-0.0346,-0.0334,-0.028,-0.0265,-0.0251,-0.0435,-0.0436,-0.0437,0,0,-0.0228,-0.0269,-0.0257,-0.021,-0.0162,-0.013,-0.0118,-0.0077,-0.0108,-0.0099,-0.014,-0.0159,-0.0221,-0.0239,-0.0266,-0.0201,-0.0264,-0.0208,-0.0159,-0.0105,-0.0093,-0.0082,-0.0109,-0.01,-0.0207,-0.0207,-0.0207,0,-0.0207,-0.0202,-0.0232,-0.0175,-0.0116,-0.0123,-0.0027,-0.006,-0.0035,-0.0051,-0.0109,-0.0113,-0.0193,-0.0178,-0.0169,-0.019,-0.0178,-0.023,-0.0097,-0.0085,-0.0074,-0.0104,-0.0095,-0.0205,-0.0205,-0.0205,-0.0206,0,-0.0156,-0.0133,-0.013,-0.0062,0.0012,0.0062,0.0068,0.0067,0.0025,0.0018,0.0001,-0.0058,-0.0043,-0.008,-0.0139,-0.0078,-0.0105,-0.0097,-0.015,-0.0058,-0.0094,-0.0085,-0.0202,-0.0203,-0.0203,-0.0204,0,0,-0.014,-0.0097,-0.0087,-0.001,0.0078,0.0152,0.0154,0.0195,0.0204,0.0149,0.02,0.009,0.008,0.006,0.0017,0.0026,0.0051,-0.0007,-0.0005,-0.0068,0.013,0.0043,0.0043,0.0093,0.0096,0.0099,0.0053,0,-0.0065,0.0048,0.0068,0.0225,0.0307,0.0321,0.0372,0.0395,0.033,0.0352,0.0247,0.027,0.0121,0.0157,0.0134,0.0118,0.0088,0.006,0.0082,0.0081,-0.0034,0.0056,0.0066,0.0024,0.0062,0.0063,0.0065,0,0.0021,0.0083,0.0237,0.0395,0.044,0.0527,0.0628,0.0668,0.0635,0.0598,0.0568,0.0507,0.0496,0.0381,0.0327,0.0328,0.022,0.0164,0.0162,0.0085,0.0014,-0.0045,0.0039,0.0079,0.0078,0.0077,0.0076,0,0.0091,0.0224,0.0348,0.0401,0.0565,0.0615,0.0701,0.0727,0.0787,0.0762,0.0835,0.0762,0.0798,0.068,0.0477,0.0441,0.0421,0.0369,0.0165,0.0154,0.0169,0.0156,0.0321,0.0321,0.0321,0.0321,0.0321,0,0.0189,0.0292,0.0364,0.0431,0.0628,0.0712,0.0865,0.0902,0.0996,0.1126,0.0985,0.1067,0.0887,0.0815,0.0596,0.0408,0.0507,0.0189,0.0163,0.0173,0.0161,0.0227,0.0217,0.0319,0.032,0.032,0.032,0,0.0287,0.0313,0.0469,0.06,0.0661,0.0805,0.1021,0.1127,0.1184,0.1361,0.1398,0.1357,0.1246,0.1001,0.0825,0.059,0.0404,0.0288,0.0257,0.0228,0.0055,0.0048,0.0092,0.0089,0.0087,0.0085,0.0083,0,0.0355,0.042,0.0586,0.0687,0.074,0.0922,0.1084,0.1218,0.1345,0.152,0.1652,0.1584,0.1514,0.1183,0.0794,0.042,0.0368,0.0171,0.0088,0.0075,0.0045,0.0041,0.0037,0.0096,0.0094,0.0093,0.0092,0,0.0481,0.0507,0.0656,0.0845,0.1001,0.1204,0.1398,0.154,0.1723,0.1845,0.1972,0.1923,0.1589,0.1204,0.069,0.0429,0.0235,0.013,0.0217,0.0139,0.0072,0.0044,0.0042,0.0082,0.0083,0.0083,0.0084,0.0084,0.0585,0.0731,0.0874,0.1083,0.1262,0.1455,0.159,0.1767,0.1996,0.2141,0.2134,0.2037,0.1667,0.0964,0.0551,0.0117,0.0133,-0.0037,-0.0029,-0.0021,-0.0025,-0.0093,-0.012,-0.012,-0.012,-0.012,-0.012,0,0.0748,0.0891,0.1086,0.1328,0.1494,0.1546,0.1815,0.1894,0.2078,0.2186,0.2194,0.181,0.1401,0.0974,0.0314,-0.0074,-0.0086,-0.0194,-0.0116,-0.0104,-0.0093,-0.0098,-0.0214,-0.0215,-0.0216,-0.0217,0,0,0.0852,0.1081,0.12,0.1484,0.16,0.1795,0.191,0.2006,0.2092,0.2099,0.2043,0.1954,0.1496,0.1005,0.0503,0.0136,0.0096,0.0058,0.017,0.0331,0.0346,0.0032,0.0041,0,0,0,0,0]}],[{"header":{"parameterUnit":"m.s-1","parameterCategory":2,"la1":30.2991,"la2":30.254,"lo1":-89.0895,"lo2":-89.0444,"dy":0.0017,"dx":0.0017,"nx":28,"ny":28,"refTime":"2023-06-18T21:00:00:Z","depth":"4","parameterNumber":2,"parameterNumberName":"U-component_of_CURRENTS"},"data":[0,0,0,0,0,0,0,0,0,0,0,0,0,0,0,0,0,0,0,0,0,0,0,0,0,0,0,0,0,0,0,0,0,0,0,0,0,0,0,0,0,0,0,0,0,0,0,0,0,0,0,0,0,0,0,0,0,0,0.1416,0.142,0,0.1603,0.1603,0.1604,0.1583,0.1582,0.1581,0.158,0.1289,0.1283,0.1276,0,0,0,0,0,0,0,0,0,0,0,0,0,0.1426,0.1422,0.1416,0.142,0.1424,0.1603,0.1603,0.1604,0.1583,0.1582,0.1581,0.158,0.1292,0.1284,0.1275,0,0,0,0,0,0,0,0,0,0,0,0,0,0.1477,0.142,0.1415,0.1452,0.1458,0.1603,0.1603,0.1604,0.1584,0.1582,0.1581,0.1579,0.1294,0.1284,0.1274,0.1241,0,0,0.1243,0.1239,0,0,0,0,0,0,0,0,0.1473,0.1473,0.1442,0.145,0.1458,0.1587,0.1503,0.1466,0.1584,0.1513,0.158,0.1578,0.136,0.1344,0.1359,0.1227,0.1215,0.1242,0.1236,0.1231,0.1229,0,0,0,0,0,0,0,0.1469,0.1468,0.1468,0.1447,0.1457,0.1593,0.1592,0.1498,0.1417,0.1519,0.1524,0.1579,0.1357,0.1369,0.1351,0.1211,0.1242,0.1233,0.1227,0.1223,0.103,0.1031,0,0,0,0,0,0,0.147,0.1462,0.1462,0.1476,0.1487,0.1594,0.1592,0.1529,0.1428,0.1422,0.158,0.1578,0.1387,0.1363,0.134,0.1353,0.1232,0.1222,0.1216,0.1029,0.103,0.1031,0,0,0,0,0,0,0.1467,0.1463,0.1455,0.1499,0.151,0.1594,0.1525,0.1534,0.1597,0.1485,0.1463,0.1642,0.1385,0.1354,0.1293,0.1338,0.1217,0.1208,0.1027,0.1029,0.103,0.1338,0,0,0,0,0,0,0.1464,0.1457,0.1433,0.1494,0.1508,0.1537,0.1529,0.154,0.1641,0.164,0.1528,0.1498,0.1382,0.1309,0.1283,0.1321,0.12,0.1026,0.1028,0.103,0.1326,0.135,0.137,0,0,0,0,0,0.1462,0.1369,0.1427,0.1432,0.1458,0.1541,0.1557,0.1605,0.1646,0.1657,0.1608,0.1504,0.13,0.1303,0.1271,0.1308,0.1025,0.1028,0.103,0.1317,0.1345,0.1369,0,0,0,0,0,0,0.1349,0.1364,0.1426,0.1343,0.1468,0.1545,0.1553,0.1653,0.1639,0.1616,0.153,0.1494,0.1482,0.1335,0.1341,0.1251,0.114,0.1136,0.1369,0.1394,0.1415,0.1402,0.1192,0,0,0,0,0,0.1331,0.126,0.1374,0.1331,0.1369,0.1501,0.1558,0.1614,0.1628,0.1628,0.1605,0.1518,0.1461,0.1383,0.1315,0.1244,0.124,0.1236,0.1258,0.1278,0.1242,0.1414,0.1452,0.1038,0.1038,0.1038,0,0,0.1292,0.1295,0.1265,0.1312,0.1379,0.1423,0.1518,0.1587,0.1639,0.1584,0.1612,0.1627,0.1477,0.1439,0.1408,0.1312,0.1388,0.1281,0.13,0.1251,0.1421,0.1463,0.15,0.104,0.104,0.1039,0,0,0.1206,0.1168,0.1125,0.1216,0.135,0.1386,0.1435,0.1577,0.163,0.1664,0.1694,0.1765,0.1592,0.16,0.1537,0.1622,0.1553,0.1566,0.1605,0.1778,0.1816,0.1849,0.1905,0.194,0.1515,0.1516,0.1516,0,0.1195,0.1132,0.1151,0.1189,0.128,0.1373,0.1444,0.1471,0.161,0.1712,0.1651,0.1716,0.1662,0.1695,0.1727,0.1682,0.1715,0.1541,0.182,0.1852,0.1881,0.1929,0.1965,0.1531,0.1529,0.1528,0.1526,0,0.1119,0.1124,0.1101,0.1139,0.1232,0.1278,0.1383,0.1477,0.1548,0.1659,0.1794,0.1779,0.1843,0.1838,0.1772,0.1964,0.1905,0.1904,0.1786,0.1944,0.198,0.2013,0.1553,0.1547,0.1543,0.1539,0,0,0.0983,0.1036,0.1054,0.1145,0.1232,0.1315,0.136,0.1515,0.1615,0.1703,0.1854,0.1883,0.2031,0.1974,0.2012,0.2088,0.2376,0.2059,0.2062,0.2164,0.2688,0.2407,0.2412,0.2456,0.2463,0.2469,0.2638,0,0.0965,0.1018,0.1056,0.1164,0.1222,0.1353,0.1416,0.1582,0.1651,0.1786,0.1873,0.1995,0.2019,0.2114,0.2227,0.236,0.2468,0.2323,0.2466,0.2467,0.2247,0.2444,0.2491,0.2661,0.2668,0.2674,0.2677,0,0.0907,0.0973,0.1081,0.1264,0.131,0.1385,0.1593,0.1681,0.1845,0.192,0.2077,0.2157,0.2363,0.2314,0.2624,0.2537,0.2645,0.268,0.269,0.2324,0.2245,0.2457,0.2734,0.2729,0.2725,0.2721,0.2718,0,0.0864,0.0994,0.1092,0.1162,0.135,0.1487,0.159,0.1784,0.1911,0.2072,0.2173,0.2371,0.2545,0.2681,0.2811,0.2785,0.3029,0.3034,0.2857,0.2835,0.2905,0.2867,0.3258,0.3257,0.3257,0.3257,0.3256,0,0.0806,0.0906,0.1101,0.1184,0.135,0.1536,0.173,0.1831,0.2025,0.2178,0.2319,0.2432,0.267,0.282,0.2862,0.2931,0.3145,0.288,0.2888,0.3019,0.2993,0.2928,0.2887,0.3263,0.3261,0.326,0.3259,0,0.073,0.0841,0.0993,0.1246,0.133,0.1487,0.1785,0.1917,0.2119,0.2296,0.2387,0.263,0.2838,0.2927,0.3146,0.3059,0.3083,0.3052,0.3113,0.3119,0.2755,0.2728,0.2916,0.2908,0.2901,0.2895,0.2891,0,0.068,0.075,0.1016,0.1155,0.128,0.1532,0.1685,0.1914,0.2057,0.2383,0.245,0.2738,0.286,0.2923,0.3015,0.3028,0.2999,0.2978,0.2918,0.2745,0.2736,0.2718,0.27,0.288,0.2878,0.2877,0.2875,0,0.0627,0.0732,0.0879,0.1139,0.134,0.1496,0.174,0.184,0.2126,0.2311,0.2502,0.2583,0.2766,0.2846,0.286,0.2857,0.2954,0.2908,0.2924,0.2868,0.2704,0.2697,0.2688,0.2852,0.2855,0.2857,0.2858,0,0.0614,0.0693,0.0918,0.1144,0.1369,0.1481,0.1577,0.1805,0.1967,0.2314,0.2368,0.2578,0.2792,0.2758,0.2745,0.2717,0.2709,0.2615,0.2646,0.2672,0.2494,0.2244,0.2282,0,0,0,0,0,0.06,0.0719,0.0925,0.1155,0.1354,0.1452,0.1657,0.176,0.2014,0.2103,0.2246,0.2371,0.2435,0.2525,0.2453,0.2591,0.2676,0.2486,0.2574,0.2722,0.2749,0.2548,0,0,0,0,0,0,0.0617,0.0798,0.0907,0.1135,0.1278,0.1427,0.1536,0.1646,0.1731,0.1993,0.2059,0.2211,0.2314,0.2475,0.2414,0.2426,0.2423,0.2597,0.2589,0.2707,0.2732,0.2753,0.2556,0,0,0,0,0]},{"header":{"parameterUnit":"m.s-1","parameterCategory":2,"la1":30.2991,"la2":30.254,"lo1":-89.0895,"lo2":-89.0444,"dy":0.0017,"dx":0.0017,"nx":28,"ny":28,"refTime":"2023-06-18T21:00:00:Z","depth":"4","parameterNumber":3,"parameterNumberName":"V-component_of_CURRENTS"},"data":[0,0,0,0,0,0,0,0,0,0,0,0,0,0,0,0,0,0,0,0,0,0,0,0,0,0,0,0,0,0,0,0,0,0,0,0,0,0,0,0,0,0,0,0,0,0,0,0,0,0,0,0,0,0,0,0,0,0,0.008,0.0078,0,0.0036,0.0037,0.0038,0.0064,0.0064,0.0064,0.0064,0.0136,0.0138,0.014,0,0,0,0,0,0,0,0,0,0,0,0,0,0.0066,0.0068,0.008,0.0078,0.0076,0.0036,0.0037,0.0038,0.0064,0.0064,0.0064,0.0064,0.0135,0.0137,0.014,0,0,0,0,0,0,0,0,0,0,0,0,0,0.0067,0.0069,0.008,0.0073,0.0071,0.0036,0.0037,0.0038,0.0064,0.0064,0.0064,0.0063,0.0134,0.0137,0.014,0.0163,0,0,0.0149,0.0151,0,0,0,0,0,0,0,0,0.0067,0.007,0.0076,0.0073,0.0071,0.0042,0.0057,0.008,0.0064,0.0083,0.0064,0.0063,0.0105,0.0111,0.0123,0.0167,0.017,0.015,0.0152,0.0153,0.0154,0,0,0,0,0,0,0,0.0067,0.0071,0.0078,0.0074,0.007,0.0029,0.0033,0.0062,0.011,0.0081,0.0079,0.005,0.0107,0.012,0.0125,0.0171,0.015,0.0152,0.0154,0.0155,0.019,0.0189,0,0,0,0,0,0,0.0049,0.0072,0.0079,0.0075,0.0051,0.0029,0.0033,0.0064,0.0107,0.0108,0.005,0.0051,0.0115,0.0121,0.0128,0.017,0.0153,0.0156,0.0158,0.019,0.0189,0.0188,0,0,0,0,0,0,0.005,0.0053,0.0081,0.0056,0.0055,0.0029,0.0064,0.0063,0.0065,0.0079,0.0086,0.0049,0.0115,0.0123,0.0157,0.0172,0.0157,0.016,0.0192,0.019,0.0189,0.0247,0,0,0,0,0,0,0.0051,0.0056,0.0089,0.0057,0.0055,0.0099,0.0062,0.0062,0.004,0.0041,0.008,0.0087,0.0115,0.0152,0.016,0.0176,0.0162,0.0193,0.0191,0.0189,0.0246,0.0248,0.0249,0,0,0,0,0,0.0052,0.0109,0.0093,0.0092,0.01,0.01,0.01,0.0086,0.0039,0.008,0.0074,0.0086,0.0145,0.0155,0.0164,0.0182,0.0194,0.0191,0.0189,0.0246,0.0247,0.0249,0,0,0,0,0,0,0.012,0.0114,0.0096,0.0149,0.0132,0.0099,0.0134,0.0076,0.01,0.0098,0.0095,0.0105,0.0128,0.0137,0.0147,0.0176,0.0162,0.0162,0.0202,0.0204,0.0205,0.0248,0.0165,0,0,0,0,0,0.0144,0.0196,0.0157,0.02,0.0207,0.0158,0.0151,0.0123,0.0115,0.0124,0.0128,0.0126,0.0126,0.0152,0.0163,0.0203,0.0159,0.0207,0.0208,0.021,0.0245,0.0132,0.0127,0.0181,0.0181,0.0181,0,0,0.0172,0.0177,0.0201,0.0217,0.0218,0.0235,0.0163,0.0166,0.0164,0.0129,0.0165,0.0135,0.0129,0.0166,0.0177,0.0184,0.0172,0.0207,0.0209,0.0244,0.0129,0.0124,0.0119,0.018,0.018,0.018,0,0,0.0262,0.0277,0.0353,0.0349,0.0332,0.0297,0.0287,0.0249,0.0245,0.0248,0.0198,0.0172,0.0205,0.0195,0.0191,0.0201,0.0167,0.0194,0.0269,0.0158,0.0153,0.0148,0.0098,0.0088,0.0215,0.0215,0.0215,0,0.0291,0.0372,0.0368,0.0424,0.0414,0.0323,0.036,0.0345,0.0306,0.0302,0.0279,0.0224,0.0219,0.0212,0.023,0.0209,0.016,0.0271,0.0161,0.0156,0.015,0.0099,0.0087,0.0217,0.0217,0.0217,0.0217,0,0.042,0.0475,0.0521,0.0562,0.0563,0.0576,0.0527,0.052,0.046,0.0418,0.0387,0.034,0.0317,0.0283,0.0285,0.0237,0.0219,0.0159,0.0165,0.0148,0.0095,0.0082,0.0221,0.022,0.0219,0.0219,0,0,0.0504,0.0592,0.061,0.064,0.0621,0.0631,0.0643,0.0625,0.0598,0.0556,0.051,0.0498,0.0437,0.0426,0.0364,0.0283,0.0202,0.0236,0.0229,0.0204,-0.0002,0.0013,-0.0,0.0114,0.0112,0.011,-0.0017,0,0.0596,0.0724,0.0733,0.0807,0.0852,0.0785,0.0803,0.0767,0.0697,0.0637,0.0551,0.0511,0.05,0.0466,0.0386,0.0237,0.0169,0.0246,0.0006,0.0001,0.0027,-0.0015,0.0103,-0.0027,-0.003,-0.0032,-0.0034,0,0.0714,0.0775,0.0894,0.092,0.0938,0.0967,0.0932,0.0927,0.0832,0.0778,0.0706,0.0615,0.0546,0.0475,0.0286,0.0338,0.0208,0.0076,0.0065,0.0059,-0.001,-0.0014,-0.0058,-0.0056,-0.0054,-0.0053,-0.0051,0,0.0778,0.0873,0.097,0.0983,0.1015,0.1057,0.1054,0.0992,0.0988,0.0863,0.0825,0.0691,0.0637,0.0443,0.0266,0.0266,-0.0009,-0.0061,-0.0171,-0.0171,-0.0168,-0.0162,-0.0228,-0.0228,-0.0228,-0.0227,-0.0227,0,0.0844,0.0922,0.1023,0.1076,0.1152,0.1153,0.1195,0.1148,0.1083,0.1057,0.0932,0.0858,0.0623,0.0452,0.0256,0.0038,0.0002,-0.0146,-0.0211,-0.0139,-0.0128,-0.0176,-0.0168,-0.0232,-0.0231,-0.023,-0.0229,0,0.0887,0.0971,0.1081,0.1169,0.1202,0.1261,0.1313,0.1307,0.1269,0.1204,0.1191,0.1012,0.08,0.0545,0.0203,0.0071,-0.0194,-0.0276,-0.0131,-0.0189,-0.0274,-0.0262,-0.0399,-0.04,-0.0401,-0.0401,-0.0402,0,0.0916,0.0993,0.1148,0.1221,0.1276,0.1365,0.1403,0.1397,0.1374,0.1289,0.124,0.107,0.0916,0.0485,0.0202,-0.0173,-0.0232,-0.0332,-0.0328,-0.0246,-0.0297,-0.0284,-0.0271,-0.0403,-0.0403,-0.0403,-0.0403,0,0.0936,0.1026,0.1113,0.1251,0.135,0.1425,0.1479,0.1488,0.1448,0.1434,0.1283,0.1071,0.0811,0.0482,0.0205,-0.0078,-0.0253,-0.034,-0.0341,-0.0337,-0.0252,-0.0299,-0.0286,-0.0405,-0.0405,-0.0405,-0.0405,0,0.0956,0.1009,0.1141,0.1242,0.1364,0.1427,0.1474,0.1459,0.146,0.1369,0.1315,0.1047,0.0902,0.0528,0.0249,0.0,-0.0066,-0.0135,-0.0148,-0.0148,-0.0042,0.0106,0.0013,0,0,0,0,0,0.0948,0.1001,0.1099,0.1218,0.1324,0.1385,0.1473,0.1501,0.1487,0.139,0.1361,0.1109,0.0727,0.0556,0.0308,0.0215,-0.0123,-0.0083,-0.0212,-0.0417,-0.0415,-0.0332,0,0,0,0,0,0,0.0948,0.1054,0.1078,0.1154,0.1216,0.1313,0.138,0.1387,0.1337,0.1311,0.1111,0.1041,0.0664,0.085,0.0292,0.0218,0.0106,-0.0255,-0.026,-0.0419,-0.0417,-0.0415,-0.0329,0,0,0,0,0]}]]